Powrót do katalogu

STARLINK-33584

AktywnyŁącznośćVLEO
NORAD 62761·PAYLOAD·🇺🇸 United States

Wystrzelony Jan 21, 2025 z Vandenberg Space Force Base

Loading…

Następne Przeloty (najbliższe 24 godziny)

TLE

ŚwieżeSource: CelesTrak SupGP

Epoka: Sep 14, 2026, 21:28 UTC

1 62761C 25015D   26257.89493056 -.00039735  00000+0 -11733-2 0  2573
2 62761  53.1571 159.8497 0001200 100.4614 219.0150 15.34427975    14

Śledź STARLINK-33584 w czasie rzeczywistym z AllMySat

Download on the App Store